TimeMDT,TemperatureF,Dew PointF,Humidity,Sea Level PressureIn,VisibilityMPH,Wind Direction,Wind SpeedMPH,Gust SpeedMPH,PrecipitationIn,Events,Conditions,WindDirDegrees,DateUTC
12:05 AM,33.8,15.8,48,30.31,10.0,SW,16.1,25.3,N/A,,Mostly Cloudy,230,2012-10-06 06:05:00
12:45 AM,33.8,15.8,48,30.29,10.0,SW,15.0,24.2,N/A,,Overcast,220,2012-10-06 06:45:00
1:06 AM,33.8,17.6,52,30.29,10.0,SW,16.1,32.2,N/A,,Overcast,220,2012-10-06 07:06:00
1:26 AM,33.8,15.8,48,30.28,10.0,SW,21.9,32.2,N/A,,Mostly Cloudy,220,2012-10-06 07:26:00
1:45 AM,32.0,15.8,51,30.29,10.0,SW,21.9,27.6,N/A,,Scattered Clouds,220,2012-10-06 07:45:00
2:05 AM,32.0,17.6,55,30.28,10.0,SW,19.6,29.9,N/A,,Scattered Clouds,230,2012-10-06 08:05:00
2:26 AM,32.0,17.6,55,30.28,10.0,SW,20.7,27.6,N/A,,Scattered Clouds,230,2012-10-06 08:26:00
2:46 AM,32.0,17.6,55,30.29,10.0,SW,15.0,26.5,N/A,,Clear,220,2012-10-06 08:46:00
3:25 AM,32.0,15.8,51,30.27,10.0,SW,15.0,-,N/A,,Clear,220,2012-10-06 09:25:00
3:46 AM,32.0,15.8,51,30.27,10.0,SW,16.1,19.6,N/A,,Clear,230,2012-10-06 09:46:00
4:06 AM,32.0,14.0,48,30.27,10.0,SW,13.8,19.6,N/A,,Clear,220,2012-10-06 10:06:00
4:25 AM,32.0,14.0,48,30.27,10.0,WSW,15.0,23.0,N/A,,Clear,240,2012-10-06 10:25:00
4:45 AM,32.0,14.0,48,30.27,10.0,SW,20.7,25.3,N/A,,Clear,230,2012-10-06 10:45:00
5:06 AM,32.0,14.0,48,30.27,10.0,SW,15.0,23.0,N/A,,Clear,230,2012-10-06 11:06:00
5:27 AM,32.0,14.0,48,30.27,10.0,SW,11.5,-,N/A,,Clear,230,2012-10-06 11:27:00
5:45 AM,32.0,14.0,48,30.27,10.0,SW,16.1,20.7,N/A,,Scattered Clouds,230,2012-10-06 11:45:00
6:05 AM,30.2,14.0,51,30.27,10.0,SW,17.3,20.7,N/A,,Scattered Clouds,230,2012-10-06 12:05:00
6:24 AM,30.2,14.0,51,30.27,10.0,SW,16.1,20.7,N/A,,Clear,220,2012-10-06 12:24:00
6:45 AM,30.2,14.0,51,30.26,10.0,SW,18.4,23.0,N/A,,Clear,230,2012-10-06 12:45:00
7:04 AM,30.2,14.0,51,30.27,10.0,SW,15.0,20.7,N/A,,Clear,230,2012-10-06 13:04:00
7:25 AM,30.2,14.0,51,30.27,10.0,SW,17.3,20.7,N/A,,Clear,220,2012-10-06 13:25:00
7:47 AM,30.2,14.0,51,30.26,10.0,SW,18.4,25.3,N/A,,Clear,220,2012-10-06 13:47:00
8:03 AM,30.2,14.0,51,30.27,10.0,SW,18.4,24.2,N/A,,Clear,230,2012-10-06 14:03:00
8:26 AM,32.0,14.0,48,30.27,10.0,SW,16.1,23.0,N/A,,Clear,230,2012-10-06 14:26:00
8:46 AM,32.0,15.8,51,30.27,10.0,SW,12.7,23.0,N/A,,Clear,220,2012-10-06 14:46:00
9:06 AM,33.8,15.8,48,30.28,10.0,SSW,12.7,19.6,N/A,,Clear,210,2012-10-06 15:06:00
9:25 AM,32.0,15.8,51,30.29,10.0,SW,11.5,17.3,N/A,,Clear,230,2012-10-06 15:25:00
9:45 AM,32.0,17.6,55,30.29,10.0,SW,11.5,18.4,N/A,,Clear,220,2012-10-06 15:45:00
10:06 AM,35.6,17.6,48,30.29,10.0,SSW,13.8,19.6,N/A,,Clear,210,2012-10-06 16:06:00
10:26 AM,35.6,17.6,48,30.28,10.0,SW,10.4,24.2,N/A,,Clear,220,2012-10-06 16:26:00
10:46 AM,37.4,17.6,45,30.28,10.0,SW,16.1,24.2,N/A,,Clear,230,2012-10-06 16:46:00
11:05 AM,37.4,17.6,45,30.27,10.0,SW,12.7,21.9,N/A,,Clear,220,2012-10-06 17:05:00
11:24 AM,39.2,17.6,42,30.27,10.0,SSW,16.1,25.3,N/A,,Clear,210,2012-10-06 17:24:00
11:46 AM,41.0,17.6,39,30.27,10.0,SW,15.0,27.6,N/A,,Clear,220,2012-10-06 17:46:00
12:06 PM,41.0,15.8,36,30.27,10.0,SSW,13.8,24.2,N/A,,Clear,210,2012-10-06 18:06:00
12:25 PM,42.8,17.6,36,30.27,10.0,SSW,11.5,21.9,N/A,,Clear,210,2012-10-06 18:25:00
12:46 PM,41.0,14.0,33,30.26,10.0,SW,19.6,32.2,N/A,,Clear,230,2012-10-06 18:46:00
1:05 PM,41.0,14.0,33,30.25,10.0,South,17.3,33.4,N/A,,Clear,190,2012-10-06 19:05:00
1:26 PM,42.8,12.2,29,30.24,10.0,SSW,12.7,32.2,N/A,,Scattered Clouds,210,2012-10-06 19:26:00
1:47 PM,42.8,12.2,29,30.22,10.0,SW,16.1,27.6,N/A,,Scattered Clouds,220,2012-10-06 19:47:00
2:05 PM,42.8,8.6,25,30.22,10.0,SSW,12.7,36.8,N/A,,Scattered Clouds,200,2012-10-06 20:05:00
2:26 PM,42.8,6.8,23,30.21,10.0,SSW,16.1,38.0,N/A,,Scattered Clouds,200,2012-10-06 20:26:00
2:46 PM,44.6,6.8,21,30.21,10.0,SSW,19.6,29.9,N/A,,Clear,210,2012-10-06 20:46:00
3:07 PM,44.6,3.2,18,30.20,10.0,SW,17.3,31.1,N/A,,Scattered Clouds,230,2012-10-06 21:07:00
3:26 PM,44.6,1.4,17,30.20,10.0,SSW,13.8,42.6,N/A,,Clear,200,2012-10-06 21:26:00
3:46 PM,44.6,-0.4,15,30.20,10.0,SW,24.2,39.1,N/A,,Clear,220,2012-10-06 21:46:00
4:05 PM,44.6,1.4,17,30.21,10.0,North,-9999.0,-,N/A,,Clear,0,2012-10-06 22:05:00
4:25 PM,42.8,1.4,18,30.20,10.0,SSW,18.4,39.1,N/A,,Clear,210,2012-10-06 22:25:00
5:05 PM,41.0,-2.2,16,30.21,10.0,SW,23.0,31.1,N/A,,Clear,220,2012-10-06 23:05:00
5:25 PM,41.0,-0.4,18,30.21,10.0,South,12.7,26.5,N/A,,Clear,190,2012-10-06 23:25:00
5:45 PM,37.4,-0.4,20,30.21,10.0,SW,19.6,34.5,N/A,,Clear,220,2012-10-06 23:45:00
6:05 PM,37.4,-2.2,19,30.22,10.0,SSW,19.6,33.4,N/A,,Clear,210,2012-10-07 00:05:00
6:25 PM,35.6,-0.4,22,30.22,10.0,SW,16.1,26.5,N/A,,Clear,230,2012-10-07 00:25:00
6:46 PM,33.8,-0.4,23,30.23,10.0,SW,18.4,28.8,N/A,,Clear,220,2012-10-07 00:46:00
7:03 PM,33.8,1.4,25,30.24,10.0,SW,15.0,24.2,N/A,,Clear,220,2012-10-07 01:03:00
7:25 PM,32.0,1.4,27,30.24,10.0,SSW,15.0,23.0,N/A,,Clear,210,2012-10-07 01:25:00
7:45 PM,32.0,-0.4,25,30.24,10.0,SW,15.0,20.7,N/A,,Clear,230,2012-10-07 01:45:00
8:05 PM,32.0,-0.4,25,30.24,10.0,SW,16.1,20.7,N/A,,Clear,220,2012-10-07 02:05:00
8:25 PM,32.0,-2.2,23,30.24,10.0,SW,17.3,23.0,N/A,,Clear,220,2012-10-07 02:25:00
8:45 PM,32.0,-4.0,21,30.25,10.0,SW,17.3,-,N/A,,Clear,220,2012-10-07 02:45:00
9:05 PM,32.0,-4.0,21,30.26,10.0,SW,17.3,23.0,N/A,,Clear,220,2012-10-07 03:05:00
9:27 PM,32.0,-5.8,20,30.26,10.0,SW,15.0,21.9,N/A,,Clear,220,2012-10-07 03:27:00
9:45 PM,30.2,-5.8,21,30.25,10.0,SW,15.0,20.7,N/A,,Clear,220,2012-10-07 03:45:00
10:05 PM,30.2,-5.8,21,30.25,10.0,SW,13.8,-,N/A,,Clear,220,2012-10-07 04:05:00
10:25 PM,30.2,-4.0,23,30.24,10.0,SW,15.0,23.0,N/A,,Clear,220,2012-10-07 04:25:00
10:44 PM,30.2,-4.0,23,30.25,10.0,SW,17.3,21.9,N/A,,Clear,220,2012-10-07 04:44:00
11:05 PM,30.2,-4.0,23,30.24,10.0,SW,16.1,21.9,N/A,,Clear,220,2012-10-07 05:05:00
11:25 PM,30.2,-5.8,21,30.24,10.0,SW,18.4,24.2,N/A,,Clear,220,2012-10-07 05:25:00
11:45 PM,30.2,-5.8,21,30.24,10.0,SW,19.6,25.3,N/A,,Clear,220,2012-10-07 05:45:00